2022/07/11 23:32:35+0000,-32.50,-46.37,-34.59,-36.22,-51.29,-54.74
2022/07/11 23:33:27+0000,-32.74,-46.47,-34.86,-35.39,-50.03,-54.71
2022/07/11 23:34:19+0000,-31.97,-46.37,-34.74,-35.60,-50.85,-55.08
2022/07/11 23:35:11+0000,-32.61,-46.59,-34.88,-34.88,-50.74,-55.05
2022/07/11 23:36:03+0000,-32.72,-46.38,-35.14,-36.23,-50.69,-55.15
2022/07/11 23:36:55+0000,-32.65,-46.49,-34.49,-35.88,-50.66,-55.53
2022/07/11 23:37:47+0000,-33.08,-46.43,-34.76,-36.05,-50.38,-55.04
2022/07/11 23:38:39+0000,-32.65,-45.41,-34.94,-35.99,-50.53,-55.06
2022/07/11 23:39:31+0000,-32.53,-46.39,-34.47,-35.36,-50.94,-55.33
2022/07/11 23:40:23+0000,-32.88,-46.44,-34.59,-35.70,-50.65,-55.47
2022/07/11 23:41:23+0000,-32.58,-44.31,-34.89,-35.65,-51.68,-55.01
2022/07/11 23:42:15+0000,-31.37,-45.27,-34.24,-35.46,-51.20,-55.43
2022/07/11 23:43:07+0000,-32.07,-45.69,-34.53,-35.35,-51.07,-54.83
2022/07/11 23:43:59+0000,-30.81,-45.16,-34.90,-35.77,-50.99,-55.55
2022/07/11 23:44:51+0000,-30.69,-45.94,-34.39,-36.42,-50.70,-54.87
2022/07/11 23:45:43+0000,-31.55,-45.82,-35.17,-35.10,-50.26,-55.29
2022/07/11 23:46:35+0000,-30.81,-45.72,-34.78,-35.64,-50.80,-55.41
2022/07/11 23:47:27+0000,-32.50,-46.32,-35.04,-36.06,-50.75,-54.44
2022/07/11 23:48:19+0000,-32.41,-46.44,-34.61,-36.34,-50.09,-54.50
2022/07/11 23:49:11+0000,-32.84,-46.19,-35.00,-35.88,-51.12,-55.34
2022/07/11 23:50:03+0000,-33.15,-46.71,-34.29,-35.35,-50.76,-55.53
2022/07/11 23:51:03+0000,-32.31,-45.55,-34.71,-35.11,-50.62,-55.77
2022/07/11 23:51:55+0000,-32.41,-46.83,-35.02,-36.57,-49.75,-55.24
2022/07/11 23:52:47+0000,-32.52,-46.77,-34.58,-36.24,-49.91,-54.98
2022/07/11 23:53:39+0000,-32.94,-46.66,-34.88,-35.82,-50.96,-55.71
2022/07/11 23:54:31+0000,-32.36,-46.45,-34.31,-35.86,-50.46,-55.28
2022/07/11 23:55:23+0000,-32.63,-46.21,-34.78,-36.19,-49.86,-54.75
2022/07/11 23:56:15+0000,-32.77,-46.71,-35.24,-35.36,-50.19,-55.37
2022/07/11 23:57:07+0000,-32.36,-45.89,-34.82,-36.15,-51.26,-55.27
2022/07/11 23:57:59+0000,-32.31,-46.32,-35.22,-36.61,-50.83,-55.36
2022/07/11 23:58:51+0000,-32.20,-46.12,-34.92,-36.41,-50.14,-55.01
2022/07/11 23:59:43+0000,-33.11,-46.06,-34.67,-35.14,-50.27,-55.17
2022/07/12 00:00:35+0000,-33.39,-46.61,-34.45,-36.43,-50.80,-55.62
2022/07/12 00:01:37+0000,-32.33,-46.75,-34.26,-35.74,-51.14,-55.24
2022/07/12 00:02:29+0000,-32.28,-46.53,-35.02,-35.68,-50.92,-55.24
2022/07/12 00:03:22+0000,-32.76,-45.83,-34.60,-36.30,-49.67,-55.39
2022/07/12 00:04:14+0000,-32.14,-46.65,-34.65,-35.53,-50.58,-55.63
2022/07/12 00:05:06+0000,-32.53,-46.11,-34.70,-35.67,-51.25,-55.67
2022/07/12 00:05:58+0000,-31.96,-46.25,-34.02,-35.33,-50.47,-55.26
2022/07/12 00:06:50+0000,-32.92,-46.59,-34.96,-35.51,-49.75,-54.60
2022/07/12 00:07:42+0000,-32.37,-45.92,-34.58,-36.03,-50.24,-55.73
2022/07/12 00:08:34+0000,-33.28,-46.46,-34.58,-36.56,-51.19,-55.19
2022/07/12 00:09:26+0000,-31.68,-46.30,-35.30,-36.51,-50.86,-55.52
2022/07/12 00:10:18+0000,-32.91,-46.34,-35.01,-36.65,-49.78,-55.10
2022/07/12 00:11:17+0000,-33.43,-46.20,-34.75,-35.60,-49.57,-55.47
2022/07/12 00:12:09+0000,-32.25,-46.62,-34.56,-35.23,-51.40,-54.98
2022/07/12 00:13:01+0000,-32.73,-46.13,-34.78,-36.03,-51.30,-55.30
2022/07/12 00:13:53+0000,-31.75,-46.02,-34.30,-36.47,-49.96,-55.48
2022/07/12 00:14:45+0000,-32.04,-46.78,-34.33,-35.98,-49.43,-55.30
2022/07/12 00:15:37+0000,-32.85,-46.75,-35.40,-35.82,-51.12,-55.44
2022/07/12 00:16:29+0000,-32.60,-46.86,-34.56,-35.99,-50.81,-55.21
2022/07/12 00:17:21+0000,-32.76,-46.57,-34.47,-35.78,-49.97,-55.17
2022/07/12 00:18:13+0000,-32.53,-45.94,-34.57,-36.23,-49.28,-55.24
2022/07/12 00:19:05+0000,-32.31,-46.71,-34.73,-35.13,-50.75,-55.74
2022/07/12 00:19:57+0000,-32.75,-46.15,-34.75,-35.64,-50.95,-55.82
2022/07/12 00:20:49+0000,-32.64,-46.31,-34.81,-36.23,-49.97,-55.25
2022/07/12 00:21:49+0000,-31.85,-46.16,-34.78,-36.50,-49.11,-55.14
2022/07/12 00:22:42+0000,-32.34,-46.27,-35.01,-35.83,-49.99,-55.53
2022/07/12 00:23:34+0000,-32.52,-46.07,-34.56,-36.17,-50.90,-55.38
2022/07/12 00:24:26+0000,-32.45,-46.77,-34.90,-36.67,-50.92,-55.54
2022/07/12 00:25:18+0000,-31.96,-45.62,-34.91,-36.35,-49.90,-55.58
2022/07/12 00:26:10+0000,-32.34,-46.31,-34.23,-35.75,-51.24,-56.03
2022/07/12 00:27:02+0000,-31.84,-46.35,-34.62,-35.61,-50.94,-55.67
2022/07/12 00:27:54+0000,-32.82,-45.93,-34.94,-35.54,-50.12,-55.32
2022/07/12 00:28:46+0000,-32.03,-46.08,-34.72,-36.19,-50.33,-54.95
2022/07/12 00:29:38+0000,-32.71,-46.49,-34.24,-36.42,-51.50,-55.78
2022/07/12 00:30:30+0000,-32.32,-46.10,-34.76,-36.13,-51.35,-55.78
2022/07/12 00:31:29+0000,-32.22,-46.19,-35.02,-36.23,-50.65,-55.36
2022/07/12 00:32:21+0000,-32.23,-45.61,-34.74,-35.82,-49.82,-55.84
2022/07/12 00:33:13+0000,-32.47,-45.81,-34.98,-35.54,-51.01,-55.27
2022/07/12 00:34:05+0000,-32.15,-46.02,-34.91,-35.79,-50.83,-55.71
2022/07/12 00:34:57+0000,-33.24,-45.51,-35.17,-36.57,-50.83,-55.49
2022/07/12 00:35:49+0000,-32.96,-46.20,-35.09,-36.63,-51.21,-55.78
2022/07/12 00:36:41+0000,-32.44,-45.85,-34.70,-36.51,-51.25,-54.98
2022/07/12 00:37:33+0000,-32.29,-46.93,-35.40,-36.21,-51.37,-55.35
2022/07/12 00:38:25+0000,-32.16,-46.14,-35.18,-35.93,-51.90,-55.14
2022/07/12 00:39:17+0000,-32.74,-46.18,-35.98,-36.14,-51.28,-55.32
2022/07/12 00:40:09+0000,-32.18,-46.36,-35.38,-35.92,-51.74,-54.77
2022/07/12 00:41:11+0000,-32.95,-46.30,-35.83,-35.41,-51.21,-55.40
2022/07/12 00:42:03+0000,-32.46,-45.44,-35.42,-36.16,-51.74,-55.66
2022/07/12 00:42:55+0000,-32.53,-45.37,-35.83,-36.37,-51.73,-55.41
2022/07/12 00:43:47+0000,-31.97,-46.43,-34.75,-35.53,-51.59,-54.98
2022/07/12 00:44:39+0000,-32.87,-45.62,-35.60,-35.82,-52.57,-55.27
2022/07/12 00:45:31+0000,-33.20,-44.34,-35.50,-35.31,-51.43,-55.74
2022/07/12 00:46:23+0000,-33.78,-45.26,-34.97,-35.67,-51.72,-54.92
2022/07/12 00:47:15+0000,-32.79,-45.36,-34.62,-36.36,-51.07,-55.23
2022/07/12 00:48:07+0000,-32.25,-45.29,-34.89,-35.91,-51.02,-55.66
2022/07/12 00:48:59+0000,-32.41,-45.62,-34.84,-36.02,-50.92,-55.26
2022/07/12 00:49:51+0000,-32.43,-45.69,-34.49,-36.51,-50.94,-54.84
2022/07/12 00:50:44+0000,-32.90,-46.09,-34.23,-35.13,-50.60,-55.36
2022/07/12 00:51:44+0000,-32.22,-45.54,-34.57,-35.65,-50.42,-56.47
2022/07/12 00:52:36+0000,-32.37,-45.55,-34.28,-35.87,-51.25,-55.58
2022/07/12 00:53:28+0000,-32.79,-46.95,-34.59,-35.74,-51.59,-55.25
2022/07/12 00:54:20+0000,-32.27,-46.99,-34.34,-35.86,-52.42,-56.05
2022/07/12 00:55:12+0000,-32.29,-45.17,-34.92,-35.57,-50.99,-55.18
2022/07/12 00:56:04+0000,-31.34,-45.69,-34.87,-35.48,-51.33,-55.59
2022/07/12 00:56:56+0000,-32.08,-46.61,-36.00,-35.39,-51.60,-55.10
2022/07/12 00:57:48+0000,-32.41,-46.39,-35.63,-35.19,-51.34,-55.34
2022/07/12 00:58:40+0000,-31.46,-45.93,-34.23,-36.04,-50.89,-55.18
2022/07/12 00:59:32+0000,-32.18,-46.52,-34.06,-35.64,-50.39,-55.97
2022/07/12 01:00:24+0000,-31.72,-45.51,-34.57,-35.78,-51.01,-55.89
2022/07/12 01:01:25+0000,-33.19,-47.07,-35.33,-35.18,-51.81,-55.19
2022/07/12 01:02:17+0000,-32.80,-46.72,-35.04,-35.76,-52.16,-55.37
2022/07/12 01:03:09+0000,-32.68,-47.05,-34.87,-34.99,-51.88,-55.37
2022/07/12 01:04:01+0000,-32.97,-46.73,-35.18,-35.64,-51.18,-55.53
2022/07/12 01:04:53+0000,-31.98,-47.68,-35.05,-35.44,-51.50,-55.42
2022/07/12 01:05:45+0000,-32.40,-46.47,-35.05,-35.70,-51.94,-55.56
2022/07/12 01:06:37+0000,-32.95,-46.86,-34.92,-34.48,-51.94,-55.21
2022/07/12 01:07:29+0000,-32.91,-46.04,-34.40,-35.82,-52.20,-55.10
2022/07/12 01:08:21+0000,-32.57,-46.00,-34.62,-36.24,-51.40,-55.55
2022/07/12 01:09:13+0000,-33.88,-45.42,-34.14,-35.07,-51.58,-56.24
2022/07/12 01:10:06+0000,-32.57,-46.09,-34.47,-34.95,-51.60,-55.90
2022/07/12 01:11:05+0000,-32.42,-46.38,-34.16,-35.11,-52.03,-55.63
2022/07/12 01:11:57+0000,-32.60,-46.29,-33.87,-34.63,-51.51,-55.43
2022/07/12 01:12:49+0000,-32.66,-44.03,-34.25,-34.92,-51.92,-55.69
2022/07/12 01:13:41+0000,-32.36,-46.84,-34.22,-34.53,-51.54,-55.46
2022/07/12 01:14:33+0000,-31.75,-47.23,-34.30,-35.90,-51.96,-54.94
2022/07/12 01:15:25+0000,-32.59,-46.66,-34.23,-35.14,-51.53,-55.53
2022/07/12 01:16:17+0000,-31.83,-46.11,-34.79,-34.22,-51.02,-55.24
2022/07/12 01:17:09+0000,-32.23,-46.38,-34.38,-35.40,-51.32,-56.40
2022/07/12 01:18:01+0000,-31.94,-46.48,-33.97,-35.13,-51.16,-55.94
2022/07/12 01:18:53+0000,-32.59,-45.57,-34.60,-36.19,-51.65,-56.02
2022/07/12 01:19:45+0000,-31.42,-46.96,-34.32,-35.88,-51.61,-56.37
2022/07/12 01:20:37+0000,-32.98,-47.15,-35.04,-36.60,-51.56,-56.03
2022/07/12 01:21:38+0000,-32.11,-46.71,-34.89,-34.63,-51.48,-55.80
2022/07/12 01:22:30+0000,-33.34,-46.62,-34.78,-35.46,-51.40,-55.67
2022/07/12 01:23:22+0000,-33.72,-46.40,-34.63,-35.63,-51.62,-55.45
2022/07/12 01:24:14+0000,-34.11,-47.36,-34.51,-35.37,-51.44,-55.59
2022/07/12 01:25:06+0000,-33.36,-46.93,-34.86,-35.96,-50.79,-56.02
2022/07/12 01:25:58+0000,-32.48,-46.63,-34.32,-35.71,-51.12,-55.71
2022/07/12 01:26:50+0000,-32.89,-46.73,-34.74,-35.94,-51.04,-55.48
2022/07/12 01:27:42+0000,-33.38,-46.07,-34.41,-35.41,-51.03,-55.78
2022/07/12 01:28:34+0000,-33.27,-46.37,-34.30,-35.37,-51.04,-55.53
2022/07/12 01:29:26+0000,-32.41,-46.62,-34.88,-36.01,-51.05,-55.74
2022/07/12 01:30:18+0000,-31.71,-46.95,-34.73,-35.93,-50.72,-56.21
2022/07/12 01:31:19+0000,-32.77,-46.33,-33.72,-35.73,-50.72,-55.70
2022/07/12 01:32:11+0000,-32.69,-46.59,-34.75,-34.37,-51.31,-55.49
2022/07/12 01:33:03+0000,-32.70,-46.22,-33.81,-34.87,-50.55,-55.50
2022/07/12 01:33:55+0000,-32.92,-45.30,-34.32,-34.93,-51.97,-55.43
2022/07/12 01:34:47+0000,-32.09,-45.36,-33.85,-35.12,-50.07,-55.28
2022/07/12 01:35:39+0000,-33.27,-45.08,-34.18,-35.10,-51.42,-55.10
2022/07/12 01:36:31+0000,-33.05,-45.08,-34.32,-34.40,-51.06,-55.48
2022/07/12 01:37:23+0000,-33.06,-44.52,-34.12,-35.12,-49.87,-55.11
2022/07/12 01:38:15+0000,-32.89,-45.96,-34.08,-35.14,-49.26,-54.99
2022/07/12 01:39:08+0000,-33.29,-46.08,-33.79,-34.97,-51.27,-55.28
2022/07/12 01:40:00+0000,-32.64,-44.84,-34.37,-34.40,-50.82,-55.05
2022/07/12 01:40:58+0000,-32.99,-45.14,-34.48,-34.26,-50.58,-55.16
2022/07/12 01:41:50+0000,-32.52,-46.04,-34.61,-34.81,-49.86,-55.35
2022/07/12 01:42:42+0000,-32.58,-46.48,-34.04,-35.21,-49.79,-55.06
2022/07/12 01:43:34+0000,-33.33,-46.10,-34.37,-35.41,-51.23,-55.72
2022/07/12 01:44:26+0000,-32.85,-45.39,-34.17,-34.58,-50.93,-55.03
2022/07/12 01:45:18+0000,-33.07,-46.34,-34.81,-35.21,-49.69,-54.47
2022/07/12 01:46:10+0000,-32.68,-45.81,-34.70,-34.90,-51.01,-54.77
2022/07/12 01:47:02+0000,-32.62,-45.24,-34.12,-35.18,-51.43,-55.51
2022/07/12 01:47:54+0000,-32.70,-45.65,-34.99,-34.15,-51.02,-55.94
2022/07/12 01:48:47+0000,-33.81,-45.90,-34.81,-35.50,-50.75,-55.18
2022/07/12 01:49:39+0000,-32.89,-46.08,-35.30,-35.12,-51.44,-54.98
2022/07/12 01:50:31+0000,-33.61,-45.09,-35.02,-35.32,-51.47,-54.95
2022/07/12 01:51:30+0000,-33.47,-45.56,-34.70,-34.86,-52.17,-55.02
2022/07/12 01:52:22+0000,-33.42,-45.73,-34.60,-35.35,-51.09,-55.68
2022/07/12 01:53:14+0000,-33.53,-45.07,-35.07,-34.91,-50.54,-54.75
2022/07/12 01:54:06+0000,-32.62,-45.85,-34.92,-34.39,-51.70,-55.27
2022/07/12 01:54:58+0000,-33.07,-45.10,-34.92,-35.18,-51.49,-55.14
2022/07/12 01:55:50+0000,-33.18,-45.35,-35.02,-35.44,-50.04,-55.91
2022/07/12 01:56:43+0000,-33.07,-45.63,-34.96,-36.65,-50.16,-55.28
2022/07/12 01:57:35+0000,-33.00,-46.27,-34.72,-35.72,-51.09,-55.04
2022/07/12 01:58:27+0000,-32.70,-45.69,-35.27,-34.41,-51.30,-55.24
2022/07/12 01:59:19+0000,-32.03,-46.49,-34.21,-36.20,-49.80,-55.21
2022/07/12 02:00:11+0000,-32.34,-46.38,-34.25,-35.57,-50.06,-55.41
2022/07/12 02:01:10+0000,-32.72,-46.48,-33.70,-36.41,-50.74,-55.15
2022/07/12 02:02:02+0000,-32.40,-46.83,-33.96,-35.48,-50.84,-55.00
2022/07/12 02:02:54+0000,-32.74,-46.77,-34.29,-34.98,-50.86,-55.82
2022/07/12 02:03:46+0000,-32.54,-47.08,-34.15,-35.50,-50.51,-55.57
2022/07/12 02:04:38+0000,-32.54,-46.73,-34.63,-35.79,-50.46,-54.51
2022/07/12 02:05:31+0000,-33.38,-46.21,-34.18,-34.98,-50.69,-55.52
2022/07/12 02:06:23+0000,-32.59,-46.22,-34.17,-35.34,-50.48,-54.89
2022/07/12 02:07:15+0000,-31.95,-46.73,-34.21,-35.11,-49.92,-55.39
2022/07/12 02:08:07+0000,-31.74,-46.54,-34.57,-35.94,-50.46,-56.07
2022/07/12 02:08:59+0000,-31.49,-46.78,-34.36,-34.92,-50.25,-54.58
2022/07/12 02:09:51+0000,-32.52,-47.37,-34.45,-34.34,-50.30,-55.44
2022/07/12 02:10:43+0000,-31.70,-46.58,-34.88,-35.55,-50.42,-54.56
2022/07/12 02:11:43+0000,-31.58,-45.99,-34.82,-35.50,-50.12,-54.97
2022/07/12 02:12:35+0000,-32.24,-47.22,-34.04,-35.57,-51.78,-54.74
2022/07/12 02:13:27+0000,-31.06,-46.82,-34.97,-35.61,-50.74,-55.33
2022/07/12 02:14:19+0000,-32.22,-45.46,-34.35,-34.80,-50.99,-55.44
2022/07/12 02:15:11+0000,-30.89,-45.14,-33.90,-35.07,-50.78,-55.19
2022/07/12 02:16:03+0000,-31.77,-45.51,-33.99,-35.10,-50.46,-55.10
2022/07/12 02:16:55+0000,-31.97,-44.39,-34.23,-35.10,-50.68,-55.25
2022/07/12 02:17:47+0000,-31.42,-46.00,-34.49,-34.63,-50.73,-55.51
2022/07/12 02:18:39+0000,-31.78,-44.92,-34.42,-35.16,-49.53,-54.86
2022/07/12 02:19:31+0000,-31.14,-44.79,-33.84,-34.62,-50.06,-54.67
2022/07/12 02:20:23+0000,-31.39,-46.12,-34.56,-34.91,-50.88,-54.96
2022/07/12 02:21:22+0000,-32.39,-45.41,-33.70,-34.79,-51.30,-55.22
2022/07/12 02:22:14+0000,-31.75,-45.48,-33.57,-35.00,-51.26,-55.42
2022/07/12 02:23:06+0000,-32.08,-46.55,-34.31,-35.73,-50.90,-55.02
2022/07/12 02:23:58+0000,-31.91,-46.19,-34.45,-34.80,-51.18,-55.37
2022/07/12 02:24:50+0000,-31.82,-47.95,-34.18,-35.36,-52.27,-54.95
2022/07/12 02:25:42+0000,-30.98,-46.49,-34.71,-35.36,-51.15,-55.10
2022/07/12 02:26:34+0000,-31.68,-48.21,-34.00,-34.88,-51.60,-55.10
2022/07/12 02:27:26+0000,-30.93,-47.82,-34.25,-34.74,-51.86,-55.78
2022/07/12 02:28:18+0000,-32.38,-46.42,-34.33,-35.43,-50.84,-55.80
2022/07/12 02:29:10+0000,-32.44,-45.27,-34.36,-35.37,-51.20,-55.48
2022/07/12 02:30:02+0000,-32.09,-45.26,-34.06,-35.37,-51.36,-54.60
2022/07/12 02:31:02+0000,-32.15,-45.78,-34.26,-34.84,-51.30,-55.36
2022/07/12 02:31:54+0000,-32.53,-45.29,-33.85,-34.86,-51.13,-55.94
2022/07/12 02:32:46+0000,-31.94,-45.51,-34.25,-35.18,-51.36,-55.61
2022/07/12 02:33:38+0000,-31.43,-46.12,-34.47,-34.94,-51.18,-55.35
2022/07/12 02:34:30+0000,-32.87,-45.75,-34.49,-34.71,-52.35,-55.12
2022/07/12 02:35:22+0000,-31.97,-46.39,-34.24,-34.65,-51.36,-55.31
2022/07/12 02:36:14+0000,-32.35,-45.72,-34.64,-35.44,-51.45,-55.31
2022/07/12 02:37:06+0000,-31.90,-46.35,-34.58,-35.04,-51.90,-55.33
2022/07/12 02:37:58+0000,-31.81,-46.03,-34.73,-35.27,-52.24,-54.96
2022/07/12 02:38:50+0000,-31.18,-46.98,-34.21,-34.29,-51.78,-55.01
2022/07/12 02:39:42+0000,-31.59,-46.31,-34.17,-34.68,-52.23,-55.42
2022/07/12 02:40:34+0000,-32.35,-47.09,-34.52,-34.79,-51.68,-54.96
2022/07/12 02:41:34+0000,-32.14,-46.48,-34.20,-35.87,-51.92,-55.18
2022/07/12 02:42:26+0000,-32.19,-46.75,-33.95,-34.52,-52.36,-55.33
2022/07/12 02:43:18+0000,-31.87,-45.13,-34.24,-35.83,-52.01,-54.69
2022/07/12 02:44:10+0000,-31.85,-46.54,-34.01,-35.06,-51.86,-55.04
2022/07/12 02:45:02+0000,-31.83,-46.22,-34.63,-35.95,-51.91,-54.38
2022/07/12 02:45:54+0000,-31.73,-46.50,-34.95,-35.47,-51.96,-54.14
2022/07/12 02:46:46+0000,-32.33,-45.48,-34.61,-34.73,-51.25,-54.08
2022/07/12 02:47:38+0000,-31.59,-46.23,-33.99,-35.73,-50.99,-54.18
2022/07/12 02:48:30+0000,-29.91,-45.04,-34.41,-35.10,-51.14,-54.32
2022/07/12 02:49:22+0000,-31.61,-46.31,-34.43,-35.53,-51.72,-54.49
2022/07/12 02:50:14+0000,-31.17,-45.50,-34.60,-35.23,-51.79,-54.02
2022/07/12 02:51:13+0000,-32.06,-46.54,-34.98,-35.94,-51.23,-54.28
2022/07/12 02:52:05+0000,-32.23,-46.32,-34.71,-35.34,-51.10,-54.03
2022/07/12 02:52:57+0000,-32.22,-46.30,-34.82,-35.35,-51.08,-54.20
2022/07/12 02:53:49+0000,-32.22,-46.34,-34.79,-34.92,-51.73,-54.02
2022/07/12 02:54:41+0000,-32.04,-45.82,-34.80,-36.47,-51.83,-53.86
2022/07/12 02:55:33+0000,-32.96,-46.71,-34.30,-34.80,-50.87,-54.33
2022/07/12 02:56:25+0000,-32.66,-45.58,-34.83,-34.84,-50.82,-54.43
2022/07/12 02:57:17+0000,-32.16,-44.57,-34.31,-35.73,-51.24,-53.64
2022/07/12 02:58:09+0000,-32.56,-46.23,-34.11,-36.15,-51.33,-53.78
2022/07/12 02:59:01+0000,-32.61,-45.37,-33.62,-35.21,-51.12,-53.54
2022/07/12 02:59:53+0000,-32.30,-46.07,-34.01,-35.07,-51.72,-53.66
2022/07/12 03:00:45+0000,-30.75,-45.09,-34.61,-35.14,-50.83,-54.13
2022/07/12 03:01:46+0000,-32.70,-43.62,-34.55,-35.55,-50.68,-53.29
2022/07/12 03:02:38+0000,-32.28,-44.10,-33.76,-34.52,-51.64,-53.47
2022/07/12 03:03:30+0000,-32.75,-43.59,-34.62,-35.14,-50.71,-53.99
2022/07/12 03:04:22+0000,-32.16,-43.42,-34.78,-34.79,-50.95,-54.06
2022/07/12 03:05:14+0000,-31.73,-44.67,-34.23,-34.72,-51.26,-53.99
2022/07/12 03:06:06+0000,-31.90,-44.91,-35.11,-35.10,-50.87,-54.16
2022/07/12 03:06:58+0000,-32.20,-44.46,-35.10,-34.75,-50.76,-54.20
2022/07/12 03:07:50+0000,-32.67,-45.50,-34.32,-34.78,-51.33,-53.95
2022/07/12 03:08:42+0000,-31.66,-44.07,-34.42,-35.47,-51.29,-54.07
2022/07/12 03:09:34+0000,-32.61,-43.70,-34.78,-34.06,-51.10,-54.44
2022/07/12 03:10:26+0000,-32.25,-41.68,-33.96,-34.66,-51.49,-54.41
2022/07/12 03:11:26+0000,-32.06,-44.03,-34.55,-35.58,-51.16,-53.58
2022/07/12 03:12:18+0000,-32.39,-44.83,-35.10,-35.02,-51.27,-53.84
2022/07/12 03:13:10+0000,-32.20,-44.31,-34.62,-35.97,-51.71,-54.11
2022/07/12 03:14:02+0000,-32.44,-43.52,-35.34,-34.75,-51.27,-53.68
2022/07/12 03:14:54+0000,-32.38,-43.14,-34.19,-35.13,-51.76,-54.35
2022/07/12 03:15:46+0000,-31.76,-44.35,-34.63,-34.63,-51.02,-54.31
2022/07/12 03:16:38+0000,-31.98,-44.03,-33.97,-34.51,-51.85,-54.17
2022/07/12 03:17:30+0000,-32.45,-44.31,-33.86,-33.99,-51.20,-53.67
2022/07/12 03:18:22+0000,-31.86,-44.51,-34.66,-34.99,-51.56,-53.47
2022/07/12 03:19:14+0000,-32.00,-44.06,-34.97,-34.28,-50.02,-54.14
2022/07/12 03:20:06+0000,-31.59,-45.16,-34.41,-35.18,-51.53,-53.99
2022/07/12 03:21:06+0000,-31.81,-43.31,-34.28,-34.81,-51.28,-53.51
2022/07/12 03:21:58+0000,-33.19,-42.96,-35.02,-35.94,-50.64,-54.50
2022/07/12 03:22:50+0000,-32.04,-42.96,-33.94,-35.66,-50.28,-53.92
2022/07/12 03:23:42+0000,-32.60,-43.41,-35.17,-34.04,-50.35,-54.34
2022/07/12 03:24:34+0000,-32.27,-43.69,-35.41,-35.12,-51.63,-54.56
2022/07/12 03:25:26+0000,-32.20,-44.51,-34.78,-35.17,-50.87,-53.86
2022/07/12 03:26:18+0000,-32.41,-43.21,-34.36,-34.74,-51.60,-54.84
2022/07/12 03:27:10+0000,-32.01,-44.59,-33.89,-35.38,-51.22,-54.30
2022/07/12 03:28:02+0000,-32.19,-44.02,-34.19,-35.40,-50.80,-53.76
2022/07/12 03:28:54+0000,-32.47,-44.32,-33.62,-35.60,-50.97,-54.04
2022/07/12 03:29:46+0000,-30.39,-43.33,-34.22,-34.42,-51.25,-54.06
2022/07/12 03:30:38+0000,-32.34,-43.82,-33.42,-34.59,-50.81,-53.42
2022/07/12 03:31:37+0000,-32.08,-44.29,-34.03,-34.82,-50.91,-54.49
2022/07/12 03:32:29+0000,-32.91,-45.05,-34.09,-35.12,-51.51,-54.47
2022/07/12 03:33:21+0000,-30.78,-45.39,-34.46,-34.98,-51.73,-54.21
2022/07/12 03:34:13+0000,-32.67,-44.93,-33.87,-34.38,-51.61,-53.98
2022/07/12 03:35:05+0000,-31.91,-45.73,-34.01,-34.88,-51.87,-54.08
2022/07/12 03:35:57+0000,-31.38,-45.79,-34.05,-34.92,-51.93,-54.06
2022/07/12 03:36:50+0000,-31.58,-46.05,-33.24,-35.57,-51.89,-54.08
2022/07/12 03:37:42+0000,-31.88,-45.87,-34.51,-35.14,-51.93,-53.90
2022/07/12 03:38:34+0000,-32.61,-45.43,-33.93,-34.51,-50.99,-54.03
2022/07/12 03:39:26+0000,-32.04,-45.57,-33.50,-34.82,-50.86,-53.93
2022/07/12 03:40:18+0000,-32.23,-45.16,-33.82,-34.35,-51.56,-53.84
2022/07/12 03:41:18+0000,-32.15,-45.33,-35.05,-34.79,-52.06,-53.97
2022/07/12 03:42:10+0000,-31.45,-45.87,-34.65,-34.24,-52.09,-53.65
2022/07/12 03:43:02+0000,-32.18,-43.93,-34.21,-34.65,-52.38,-54.03
2022/07/12 03:43:54+0000,-31.43,-45.17,-34.57,-34.41,-52.56,-53.20
2022/07/12 03:44:46+0000,-31.00,-46.06,-34.45,-34.14,-52.08,-54.41
2022/07/12 03:45:38+0000,-32.61,-45.88,-34.76,-34.83,-51.34,-54.29
2022/07/12 03:46:30+0000,-32.24,-44.48,-34.24,-34.40,-51.45,-53.87
2022/07/12 03:47:22+0000,-31.85,-46.37,-35.02,-33.93,-51.37,-54.16
2022/07/12 03:48:14+0000,-31.65,-45.18,-34.34,-34.68,-52.22,-54.33
2022/07/12 03:49:06+0000,-31.92,-45.32,-34.25,-34.58,-51.66,-53.58
2022/07/12 03:49:58+0000,-32.04,-44.22,-34.71,-34.74,-52.45,-53.70
2022/07/12 03:50:50+0000,-31.31,-45.53,-34.83,-34.61,-51.71,-53.74
2022/07/12 03:51:50+0000,-31.71,-45.86,-33.99,-34.89,-52.17,-53.80
2022/07/12 03:52:42+0000,-31.69,-45.57,-34.53,-34.62,-52.76,-54.13
2022/07/12 03:53:34+0000,-32.10,-44.59,-34.60,-34.97,-51.77,-54.27
2022/07/12 03:54:26+0000,-32.25,-42.51,-34.99,-34.80,-52.59,-53.74
2022/07/12 03:55:18+0000,-31.86,-44.32,-34.82,-34.31,-52.49,-54.05
2022/07/12 03:56:10+0000,-31.40,-45.46,-34.23,-34.46,-52.85,-53.97
2022/07/12 03:57:02+0000,-31.20,-44.08,-34.62,-35.40,-53.30,-53.92
2022/07/12 03:57:54+0000,-32.34,-43.91,-34.77,-35.03,-53.63,-53.75
2022/07/12 03:58:46+0000,-32.39,-45.51,-34.82,-34.34,-52.62,-54.01
2022/07/12 03:59:38+0000,-31.92,-44.46,-34.44,-33.23,-52.55,-54.11
2022/07/12 04:00:30+0000,-31.20,-46.28,-34.65,-34.44,-52.95,-53.52
2022/07/12 04:01:30+0000,-32.56,-45.57,-34.30,-34.57,-53.00,-53.70
2022/07/12 04:02:22+0000,-32.05,-45.18,-35.02,-35.14,-51.59,-54.61
2022/07/12 04:03:14+0000,-31.61,-45.93,-34.96,-34.40,-52.60,-54.08
2022/07/12 04:04:06+0000,-31.92,-46.01,-34.70,-33.92,-53.00,-54.06
2022/07/12 04:04:58+0000,-31.88,-44.40,-34.56,-34.97,-52.95,-53.97
2022/07/12 04:05:50+0000,-32.50,-45.94,-34.88,-36.17,-51.77,-54.49
2022/07/12 04:06:43+0000,-32.42,-45.56,-33.63,-34.01,-52.95,-53.73
2022/07/12 04:07:35+0000,-32.36,-46.17,-34.73,-34.43,-52.46,-53.80
2022/07/12 04:08:27+0000,-32.23,-45.28,-34.10,-34.33,-52.88,-54.20
2022/07/12 04:09:19+0000,-33.00,-43.84,-34.75,-34.72,-52.38,-54.02
2022/07/12 04:10:11+0000,-31.59,-45.87,-34.52,-34.92,-52.96,-54.18
2022/07/12 04:11:10+0000,-32.19,-44.80,-34.69,-34.40,-52.43,-54.01
2022/07/12 04:12:02+0000,-32.08,-44.93,-34.58,-34.24,-52.96,-53.73
2022/07/12 04:12:54+0000,-32.08,-43.67,-34.25,-34.97,-52.10,-54.07
2022/07/12 04:13:46+0000,-32.45,-44.42,-34.54,-34.07,-52.75,-54.13
2022/07/12 04:14:38+0000,-32.31,-44.75,-34.61,-34.21,-52.94,-54.11
2022/07/12 04:15:30+0000,-31.84,-44.35,-34.77,-35.09,-52.85,-53.76
2022/07/12 04:16:22+0000,-32.03,-44.14,-35.37,-35.03,-52.59,-53.86
2022/07/12 04:17:14+0000,-32.38,-45.42,-35.17,-34.15,-52.71,-54.26
2022/07/12 04:18:06+0000,-32.55,-46.30,-35.32,-33.72,-52.55,-54.04
2022/07/12 04:18:59+0000,-31.86,-43.32,-34.95,-35.51,-52.48,-53.87
2022/07/12 04:19:51+0000,-32.08,-45.01,-34.81,-34.82,-52.01,-54.58
2022/07/12 04:20:43+0000,-31.62,-42.86,-34.68,-33.08,-51.74,-54.54
2022/07/12 04:21:42+0000,-31.89,-42.18,-35.24,-34.10,-52.14,-54.29
2022/07/12 04:22:34+0000,-31.80,-44.00,-34.69,-34.48,-51.85,-54.08
2022/07/12 04:23:26+0000,-32.02,-43.81,-35.27,-34.63,-52.19,-54.12
2022/07/12 04:24:18+0000,-31.75,-42.90,-35.23,-35.13,-51.92,-54.59
2022/07/12 04:25:10+0000,-31.70,-44.47,-34.54,-34.85,-52.64,-54.18
2022/07/12 04:26:02+0000,-31.74,-43.62,-35.05,-35.33,-52.11,-53.95
2022/07/12 04:26:54+0000,-31.68,-43.06,-33.96,-33.89,-52.34,-54.42
2022/07/12 04:27:46+0000,-32.54,-43.33,-34.13,-33.49,-52.54,-54.32
2022/07/12 04:28:38+0000,-31.40,-43.70,-34.51,-34.64,-52.11,-53.77
2022/07/12 04:29:30+0000,-31.79,-43.97,-34.37,-35.40,-52.38,-53.87
2022/07/12 04:30:22+0000,-31.79,-44.97,-34.92,-35.48,-53.40,-54.40
2022/07/12 04:31:22+0000,-31.40,-45.01,-34.87,-34.60,-52.73,-53.80
2022/07/12 04:32:14+0000,-30.35,-41.67,-35.03,-35.07,-53.07,-54.63
2022/07/12 04:33:06+0000,-31.40,-45.58,-35.44,-34.69,-53.23,-55.21
2022/07/12 04:33:58+0000,-32.47,-43.96,-35.04,-34.79,-52.96,-53.66
2022/07/12 04:34:50+0000,-32.44,-42.69,-34.55,-35.46,-53.17,-54.58
2022/07/12 04:35:42+0000,-30.85,-42.76,-35.19,-34.88,-53.68,-54.59
2022/07/12 04:36:34+0000,-31.17,-44.40,-35.42,-33.79,-53.35,-54.31
2022/07/12 04:37:26+0000,-31.87,-43.47,-35.26,-33.81,-53.58,-53.93
2022/07/12 04:38:18+0000,-31.82,-43.42,-35.46,-34.48,-53.16,-53.92
2022/07/12 04:39:10+0000,-31.30,-43.99,-35.03,-33.33,-52.12,-54.44
2022/07/12 04:40:02+0000,-31.65,-43.37,-35.62,-33.40,-51.84,-53.66
2022/07/12 04:41:02+0000,-31.06,-43.78,-34.86,-34.08,-52.99,-53.78
2022/07/12 04:41:54+0000,-32.08,-43.41,-35.69,-33.48,-52.12,-54.12
2022/07/12 04:42:46+0000,-31.66,-43.09,-35.19,-33.67,-52.63,-53.65
2022/07/12 04:43:38+0000,-31.73,-44.06,-34.71,-33.26,-52.36,-53.62
2022/07/12 04:44:30+0000,-31.85,-43.08,-35.23,-34.33,-52.22,-54.56
2022/07/12 04:45:22+0000,-31.98,-44.15,-35.46,-33.05,-52.51,-54.39
2022/07/12 04:46:14+0000,-29.27,-42.65,-35.67,-33.13,-52.49,-53.85